Location: Salisbury
(38.3600°N, 75.6000°W)
Time: 04:41:37
(UTC-04:00)

Daily predictions for brighter satellites

Satellite Brightness Start Highest point End
(mag) Time Altitude Azimuth Time Altitude Azimuth Time Altitude Azimuth
Cosmos 2297 Rocket 4.4 03:19:28 21° NE 03:19:28 21° NE 03:21:28 10° NE
Cosmos 2344 4.2 03:27:45 52° NNE 03:27:45 52° NNE 03:34:13 10° NNE
Lacrosse 5 4.5 03:33:01 16° NE 03:33:01 16° NE 03:34:02 10° NE
BREEZE-M DEB (TANK) 4.5 03:37:52 50° NE 03:37:54 50° NE 03:50:15 10° ESE
USA 215 3.4 03:54:55 10° ESE 04:01:21 68° NE 04:01:21 68° NE
CENTAUR R/B 4.2 03:57:36 10° NNW 04:04:52 40° NE 04:12:33 10° ESE
CZ-4B R/B 4.1 04:19:21 10° NNE 04:24:36 46° E 04:26:34 33° SSE
CZ-2D R/B 3.9 04:21:22 10° N 04:23:15 22° N 04:23:15 22° N
Cosmos 1898 Rocket 3.8 04:29:39 67° ENE 04:29:39 67° ENE 04:34:28 10° NNE
IRS-1C Rocket 4.2 04:26:49 10° NNE 04:32:07 69° ESE 04:32:18 68° ESE
Cosmos 1153 Rocket 4.4 04:28:36 10° N 04:34:26 70° NW 04:34:26 70° NW
Cosmos 1937 Rocket 3.9 04:36:05 53° SE 04:36:52 59° ESE 04:42:03 10° NNE
Resurs 1-4 Rocket 3.9 04:33:28 10° N 04:35:23 20° NNW 04:35:23 20° NNW
Meteor 2-4 Rocket 3.6 04:38:08 84° WSW 04:38:15 85° W 04:44:14 10° N
Cosmos 724 4.3 04:36:28 40° NNW 04:38:55 90° SW 04:45:08 10° SSE
SL-16 R/B 2.0 04:38:22 10° NNW 04:44:05 87° WSW 04:49:45 10° SSE
DELTA 2 R/B (1) 3.4 04:46:14 80° NW 04:46:27 83° N 04:52:03 10° E
Meteor 2-9 Rocket 4.2 04:41:18 10° N 04:47:02 88° E 04:52:52 10° S
Okean O Rocket 2.3 04:47:14 10° N 04:50:22 45° N 04:50:22 45° N
Cosmos 2227 Rocket 3.6 04:53:25 23° NNW 04:53:25 23° NNW 04:56:35 10° N
BREEZE-M DEB (TANK) 3.7 04:53:01 44° N 04:53:01 44° N 04:55:01 10° NE
Meteor 1-23 Rocket 4.1 04:52:38 67° WSW 04:53:01 69° W 04:58:44 10° N
Cosmos 1892 Rocket 4.4 05:01:47 37° NNW 05:01:47 37° NNW 05:04:46 10° N
Cosmos 2297 Rocket 3.3 05:01:19 29° NW 05:01:19 29° NW 05:05:21 10° N
PSLV R/B 4.2 04:57:17 10° NNE 05:01:31 53° E 05:04:40 17° S
CZ-4B R/B 3.0 04:59:57 10° N 05:04:25 74° WNW 05:04:41 71° WSW
Cosmos 2228 3.0 05:00:08 10° N 05:04:33 81° E 05:08:53 10° S
Lacrosse 5 3.7 05:12:13 16° NW 05:12:47 17° NNW 05:16:02 10° NNE
Cosmos 2100 Rocket 4.0 05:09:16 10° NNW 05:15:22 57° W 05:21:31 10° SSW
Cosmos 1802 Rocket 3.9 05:14:33 10° NNW 05:20:38 65° W 05:26:41 10° S
Cosmos 1812 Rocket 4.4 05:19:12 10° N 05:23:34 52° E 05:27:55 10° SSE
Cosmos 2061 Rocket 4.1 05:18:18 10° NNW 05:24:26 54° W 05:30:37 10° SSW
Cosmos 1725 Rocket 4.2 05:19:06 10° N 05:25:25 76° E 05:31:38 10° S
OAO 2 Rocket 3.7 05:26:15 34° SW 05:28:22 58° S 05:33:35 10° E
ADEOS II 2.0 05:23:08 10° NNE 05:28:26 90° E 05:33:41 10° SSW
CZ-4B DEB 4.4 05:25:30 10° N 05:30:45 48° WNW 05:34:08 21° SW
Cosmos 2263 Rocket 3.9 05:26:51 10° SSE 05:31:44 32° ESE 05:36:37 10° NE
Cosmos 1603 3.7 05:26:14 10° NNW 05:31:59 86° ENE 05:37:39 10° SSE
Cosmos 990 Rocket 4.1 05:30:49 25° SW 05:33:46 55° WNW 05:38:56 10° N
ASTRO F (AKARI) 4.3 05:35:10 10° S 05:38:16 55° W 05:41:31 10° NNW
Genesis I 3.8 05:40:15 33° W 05:41:21 40° NW 05:45:08 10° NNE
ADEOS Rocket 3.3 05:37:02 10° N 05:43:44 52° WNW 05:49:45 10° SW
USA 215 3.9 05:38:59 10° S 05:44:39 31° SW 05:48:46 17° WNW
Cosmos 2016 Rocket 4.2 05:39:10 10° NNW 05:45:13 49° W 05:51:10 10° SSW
USA 116 4.1 05:41:08 10° S 05:46:07 70° WSW 05:50:37 10° NNW
Thor Agena Rocket 3.9 05:47:53 10° S 05:52:52 41° W 05:57:52 10° NNW
EXPRESS MD2 3.7 05:51:20 20° WNW 05:53:46 66° SW 06:00:36 10° SE
Cosmos 1515 4.1 05:50:38 12° SSW 05:53:57 39° W 05:57:34 10° N
Tiangong 1 1.4 05:52:48 22° NW 05:54:28 56° NNE 05:57:28 10° E
Cosmos 1174 3.6 05:52:40 19° NW 05:54:32 41° WSW 05:57:52 10° S
CENTAUR R/B 3.2 05:48:10 10° NW 05:55:52 53° WSW 06:03:54 10° S
COSMO-SKYMED 1 3.9 05:51:56 10° SE 05:56:01 43° ENE 06:00:08 10° N
Cosmos 1825 Rocket 4.0 05:51:42 10° S 05:56:02 64° E 06:00:22 10° NNE
Meteor 1-31 Rocket 2.7 05:56:03 10° N 05:59:58 72° WNW 06:03:53 10° SSW
FALCON 9 R/B 4.2 05:54:20 15° WSW 06:00:30 68° SSE 06:29:05 10° E
Cosmos 1340 2.6 05:56:59 10° SSW 06:00:44 68° W 06:04:32 10° N
Cosmos 372 Rocket 4.5 05:56:07 10° S 06:01:08 62° ESE 06:06:12 10° NNE
Okean-O 3.1 05:58:11 10° N 06:02:20 40° WNW 06:06:27 10° SW
Cosmos 2123 Rocket 4.2 05:58:38 10° SSW 06:04:30 45° WNW 06:10:25 10° N
CZ-4B R/B 4.3 06:00:40 10° NNW 06:04:50 23° WNW 06:08:27 12° WSW
CZ-3A R/B 4.0 06:00:19 10° WSW 06:05:37 16° SSW 06:08:11 10° SSE
Cosmos 1626 Rocket 4.5 06:05:47 10° SW 06:09:28 26° WNW 06:13:10 10° NNW
Meteor PRIRODA 4.5 06:07:06 10° N 06:10:24 30° WNW 06:13:39 10° SW
Cosmos 1125 Rocket 3.6 06:12:43 10° SSW 06:17:48 56° WNW 06:22:56 10° N
Radarsat Rocket 4.1 06:15:42 10° NNE 06:22:16 84° WNW 06:28:12 10° SSW
Cosmos 1842 3.3 06:24:19 10° S 06:28:12 86° E 06:32:06 10° N
CZ-4B R/B 4.5 06:25:20 10° N 06:28:46 31° WNW 06:32:04 10° SW
Cosmos 1953 Rocket 3.6 06:25:02 10° SSW 06:29:28 73° W 06:33:59 10° N
DELTA 2 R/B (1) 3.6 06:27:29 10° W 06:33:04 87° N 06:38:40 10° E
Iridium 4 Rocket 3.2 06:31:45 10° S 06:36:31 63° W 06:40:55 10° N
